Regional Weather Roundup
Issued by NWS

Home | Current Version | Previous Version | Graphics & Text | Print | Product List | Glossary On
Versions: 1 2 3 4 5 6 7 8 9 10 11 12 13 14 15 16 17 18 19 20 21 22 23 24 25 26 27 28 29 30 31 32 33 34 35 36 37 38 39 40 41 42 43 44 45 46 47 48 49 50
000
ASUS43 KMKX 221800
RWRWI

WISCONSIN REGIONAL WEATHER ROUNDUP
NATIONAL WEATHER SERVICE MILWAUKEE/SULLIVAN WI
100 PM CDT FRI SEP 22 2017

NOTE: "FAIR" INDICATES FEW OR NO CLOUDS BELOW 12,000 FEET WITH NO
SIGNIFICANT WEATHER AND/OR OBSTRUCTIONS TO VISIBILITY.

WIZ001-002-006>008-014>016-023>028-221900-
NORTHWEST WISCONSIN

CITY           SKY/WX    TMP DP  RH WIND       PRES   REMARKS
SUPERIOR ARPT  LGT RAIN  67  65  93 NW7       29.85F
ASHLAND        CLOUDY    68  64  87 S12       29.90R
6HR MIN TEMP:  65; 6HR MAX TEMP:  72; 6HR PCP:  0.18;

HAYWARD        CLOUDY    70  64  81 SE7       29.94S
6HR MIN TEMP:  64; 6HR MAX TEMP:  72; 6HR PCP:  3.33;

SIREN          CLOUDY    73  68  85 E7        29.90S
CUMBERLAND     CLOUDY    73  70  88 E8        29.92F
RICE LAKE      CLOUDY    76  71  84 E12       29.94F HAZE
CHETEK         CLOUDY    77  71  82 MISG      29.93F
LADYSMITH      CLOUDY    68  65  90 E8        30.00F
EAU CLAIRE     MOSUNNY   89  70  53 S14G21    29.90S HX  94
6HR MIN TEMP:  73; 6HR MAX TEMP:  89;

MENOMONIE      MOSUNNY   87  70  56 S7        29.90R HX  91
NEW RICHMOND   MOSUNNY   83  70  64 E9        29.88F HX  87
OSCEOLA        MOSUNNY   85  71  61 SE10G16   29.90S HX  90
$$

WIZ003>005-009-010-017-018-221900-
NORTH CENTRAL WISCONSIN

CITY           SKY/WX    TMP DP  RH WIND       PRES   REMARKS
MANITOWISH WTR NOT AVBL
ARBOR VITAE    TSTM      64  63  94 E3        30.03F
WOODRUFF       TSTM      64  63  94 E3        30.03F
RHINELANDER    TSTM      65  64  97 VRB3      30.07R
6HR MIN TEMP:  64; 6HR MAX TEMP:  78; 6HR PCP:  0.18;

EAGLE RIVER    RAIN      64  64  97 CALM      30.08R
LAND O LAKES   TSTM      64  63  94 E3        30.05F
PHILLIPS       TSTM      66  66 100 N5        30.03R
TOMAHAWK       CLOUDY    67  62  83 N9        30.06R
MEDFORD        CLOUDY    83  71  64 SW10G16   29.99R HX  88
MERRILL        CLOUDY    82  72  70 SW7       30.00R HX  87
$$

WIZ029-030-035-036-043>047-221900-
CENTRAL WISCONSIN

CITY           SKY/WX    TMP DP  RH WIND       PRES   REMARKS
WAUSAU         PTSUNNY   85  69  58 S12       29.98S HX  89
6HR MIN TEMP:  66; 6HR MAX TEMP:  86; 6HR PCP: TRACE;

MOSINEE        MOSUNNY   84  70  61 S15       29.99F HX  88
MARSHFIELD     SUNNY     88  68  51 S14G22    29.97F HX  91
6HR MIN TEMP:  68; 6HR MAX TEMP:  88;

STEVENS POINT  SUNNY     85  68  55 S15G21    30.00F HX  89
WAUPACA        SUNNY     90  69  50 S12       30.01F HX  94
WAUTOMA        NOT AVBL
WISC RAPIDS    SUNNY     88  70  55 S15G22    29.99F HX  93
6HR MIN TEMP:  69; 6HR MAX TEMP:  88;

CAMP DOUGLAS   NOT AVBL
$$

WIZ011>013-019>022-031-037>040-048>050-221900-
NORTHEAST WISCONSIN

CITY           SKY/WX    TMP DP  RH WIND       PRES   REMARKS
ANTIGO         CLOUDY    81  70  69 S14       30.02S HX  84
SHAWANO        CLOUDY    89  69  51 S8        29.99F HX  93
OCONTO         CLOUDY    88  69  53 SW9       29.99S HX  93
STURGEON BAY   NOT AVBL
GREEN BAY      SUNNY     88  72  58 S12       30.00F HX  94
6HR MIN TEMP:  67; 6HR MAX TEMP:  88;

MANITOWOC      SUNNY     82  71  69 S12       30.03S HX  86
6HR MIN TEMP:  64; 6HR MAX TEMP:  88;

APPLETON       MOSUNNY   88  64  45 SW13G18   30.01S HX  89
CLINTONVILLE   CLOUDY    90  66  45 SW12G18   29.99F HX  92
OSHKOSH        SUNNY     88  71  57 SW13G21   30.02R HX  94
6HR MIN TEMP:  69; 6HR MAX TEMP:  88;

$$

WIZ032>034-041-042-053>061-221900-
SOUTHWEST WISCONSIN

CITY           SKY/WX    TMP DP  RH WIND       PRES   REMARKS
LA CROSSE      SUNNY     93  71  48 S17G25    29.93F HX 100
6HR MIN TEMP:  76; 6HR MAX TEMP:  93;

SPARTA         SUNNY     88  69  53 S15       29.97S HX  92
VIROQUA        SUNNY     88  69  52 S13G21    30.00S HX  92
BOSCOBEL       SUNNY     92  67  43 S13G22    29.98S HX  95
6HR MIN TEMP:  72; 6HR MAX TEMP:  93;

PRAIRIE DU CHI SUNNY     89  66  45 S12       29.97S HX  91
PLATTEVILLE    SUNNY     88  70  54 S13G20    30.02F HX  93
$$

WIZ056-057-062-063-064-067-068-221900-
SOUTH CENTRAL WISCONSIN

CITY           SKY/WX    TMP DP  RH WIND       PRES   REMARKS
REEDSBURG      SUNNY     89  70  52 S16       30.00S HX  94
BARABOO/DELLS  SUNNY     87  67  50 SW15G21   30.01S HX  90
LONE ROCK      NOT AVBL
MINERAL POINT  SUNNY     90  68  48 S18G25    30.03F HX  93
MADISON        MOSUNNY   88  68  51 SW10G21   30.02S HX  91
6HR MIN TEMP:  70; 6HR MAX TEMP:  89;

MIDDLETON      SUNNY     90  68  48 S16       30.03S HX  93
WATERTOWN      SUNNY     89  70  52 SW18      30.03S HX  94
MONROE         SUNNY     88  64  45 S15G25    30.05S HX  89
JANESVILLE     MOSUNNY   93  64  38 SW14      30.03F HX  95
$$

WIZ051-052-058>065-066-070>072-221900-
SOUTHEAST WISCONSIN

CITY           SKY/WX    TMP DP  RH WIND       PRES   REMARKS
MILWAUKEE      MOSUNNY   94  65  38 SW9       30.03F HX  96
6HR MIN TEMP:  74; 6HR MAX TEMP:  94;

WAUKESHA       SUNNY     90  61  37 S9G18     30.06S HX  89
MILWAUKEE/TIMM SUNNY     91  59  33 W13G22    30.04F HX  90
RACINE         SUNNY     89  70  53 SE10      30.06S HX  94
6HR MIN TEMP:  69; 6HR MAX TEMP:  93;

BURLINGTON     SUNNY     91  66  42 SW12      30.05S HX  94
KENOSHA        SUNNY     93  66  40 W10       30.05F HX  96
6HR MIN TEMP:  68; 6HR MAX TEMP:  93;

FOND DU LAC    SUNNY     88  67  49 SW13      30.03R HX  91
6HR MIN TEMP:  71; 6HR MAX TEMP:  88;

SHEBOYGAN      SUNNY     91  69  48 SW13      30.03S HX  96
6HR MIN TEMP:  64; 6HR MAX TEMP:  91;

WEST BEND        N/A     88  63  42 SW12G17   30.04S HX  88
JUNEAU         SUNNY     86  69  56 SW15G21   30.06R HX  90
$$

LSZ147-162-221900-
LAKE SUPERIOR

STATION/POSITION TIME  TEMP    WIND        PRES    WAVE
                       AIR SEA DIR/SP/G            HT/PER
                 (UTC) (F)     (DEG/KT/KT) (MB)    (FT/S)
W MID LAKE BUOY  1650   61 54  180/ 27/ 31 1009.5F   1/ 3
DEVILS ISLAND    1700   69     160/ 23/ 31 1009.1F
PORT WING        1740   69     120/  9/ 16 1010.2F
SAXON HARBOR     1730   66     190/ 10/ 16 1011.5F
$$

LMZ867-665-643>646-221900-
LAKE MICHIGAN

STATION/POSITION TIME  TEMP    WIND        PRES    WAVE
                       AIR SEA DIR/SP/G            HT/PER
                 (UTC) (F)     (DEG/KT/KT) (MB)    (FT/S)
S GREEN BAY BUOY 1730   74 69  200/  6/  6 1015.8R
N MID LAKE BUOY  1650   69 66  190/ 12/ 14 1016.4F   2/ 4
NORTHPORT PIER   1740   74     140/ 10/ 12 1015.6S
KEWAUNEE LAKESHO 1724   67     180/ 13/ 18 1015.8
SHEBOYGAN LAKESH 1700   70     170/ 15/ 16 1016.6F
PORT WASHINGTON  1740   78     180/  6/  9 1017.9S
ATWATER BUOY     1609   71 66  150/ 12/ 14 1017.6F
MILWAUKEE LAKESH 1730   72     130/ 11/ 12   N/A
S MID LAKE BUOY  1650   72 70  160/  8/  8 1018.4F   1
KENOSHA   LAKESH 1700   75     160/  9/ 12 1017.3
$$

TC  - TEMPERATURE IN CELSIUS
VSB - VISIBILITY IN STATUTE MILES
WCI - WIND CHILL INDEX
HX  - HEAT INDEX





USA.gov is the U.S. government's official web portal to all federal, state and local government web resources and services.